[[{"header":{"parameterUnit":"m.s-1","parameterCategory":1,"la1":30.2991,"la2":30.254,"lo1":-89.0895,"lo2":-89.0444,"dy":0.0017,"dx":0.0017,"nx":28,"ny":28,"refTime":"2025-08-25T03:00:00:Z","depth":0,"parameterNumber":2,"parameterNumberName":"U-component_of_WINDS"},"data":[0,0,0,0,0,0,0,0,0,0,0,0,0,0,0,0,0,0,0,0,0,0,0,0,0,0,0,0,0,0,0,0,0,0,0,0,0,0,0,0,0,0,0,0,0,0,0,0,0,0,0,0,0,0,0,0,0,0,1.1521,1.1521,0,1.1535,1.1535,1.1535,1.1524,1.1524,1.1523,1.1523,1.1536,1.1537,1.1537,0,0,0,0,0,0,0,0,0,0,0,0,0,1.1483,1.1484,1.1521,1.1522,1.1522,1.1535,1.1535,1.1535,1.1524,1.1524,1.1523,1.1523,1.1536,1.1537,1.1537,0,0,0,0,0,0,0,0,0,0,0,0,0,1.1499,1.1484,1.1521,1.1518,1.1518,1.1535,1.1535,1.1535,1.1524,1.1524,1.1523,1.1522,1.1535,1.1536,1.1538,1.1559,0,0,1.1541,1.1542,0,0,0,0,0,0,0,0,1.1498,1.15,1.1518,1.1518,1.1518,1.1527,1.1527,1.1543,1.1525,1.1522,1.1523,1.1522,1.1533,1.1535,1.1539,1.156,1.156,1.1541,1.1542,1.1543,1.1543,0,0,0,0,0,0,0,1.1497,1.15,1.1527,1.1518,1.1518,1.1515,1.1516,1.153,1.1531,1.1522,1.1521,1.1523,1.1533,1.1538,1.1539,1.156,1.1541,1.1542,1.1543,1.1544,1.1596,1.1597,0,0,0,0,0,0,1.1496,1.1499,1.1526,1.1527,1.1506,1.1516,1.1518,1.1525,1.1531,1.1532,1.1524,1.1522,1.1536,1.1538,1.1539,1.1563,1.1543,1.1544,1.1544,1.1596,1.1597,1.1597,0,0,0,0,0,0,1.1496,1.1499,1.1526,1.1513,1.1516,1.1517,1.1526,1.1526,1.153,1.1532,1.1533,1.1528,1.1536,1.1538,1.1554,1.1563,1.1544,1.1545,1.1595,1.1596,1.1597,1.1611,0,0,0,0,0,0,1.1495,1.1499,1.1508,1.1513,1.1517,1.154,1.1526,1.1526,1.1532,1.1531,1.1537,1.1537,1.1535,1.1552,1.1555,1.1565,1.1546,1.1594,1.1595,1.1597,1.161,1.1613,1.1615,0,0,0,0,0,1.1493,1.1511,1.1508,1.1511,1.1528,1.1541,1.1543,1.1541,1.1533,1.1541,1.1542,1.1537,1.1562,1.1554,1.1557,1.1567,1.1593,1.1595,1.1597,1.1609,1.1612,1.1615,0,0,0,0,0,0,1.1507,1.1512,1.1508,1.1529,1.1535,1.1539,1.1549,1.1545,1.1553,1.1551,1.1548,1.1549,1.1566,1.1568,1.1559,1.1587,1.1576,1.1579,1.1584,1.1588,1.159,1.1589,1.1547,0,0,0,0,0,1.1513,1.1524,1.1527,1.1545,1.1548,1.1548,1.1554,1.1552,1.1557,1.156,1.1562,1.1567,1.1576,1.1582,1.1591,1.161,1.161,1.1619,1.1621,1.1623,1.1625,1.1633,1.1636,1.1602,1.1602,1.1602,0,0,1.1524,1.1528,1.1535,1.1548,1.1552,1.1562,1.155,1.1562,1.1569,1.1561,1.1576,1.1578,1.1583,1.1601,1.1608,1.1603,1.1634,1.1625,1.1627,1.1627,1.1635,1.1638,1.1641,1.1604,1.1603,1.1603,0,0,1.155,1.1555,1.1569,1.1573,1.1579,1.1579,1.1582,1.1587,1.1588,1.1602,1.1596,1.1604,1.162,1.1624,1.1628,1.1653,1.1647,1.1656,1.1669,1.1677,1.1679,1.1682,1.1689,1.1692,1.1658,1.1658,1.1658,0,1.1563,1.1579,1.1577,1.1588,1.1593,1.1586,1.1599,1.1603,1.1612,1.1615,1.1609,1.1628,1.1631,1.1648,1.1654,1.1658,1.166,1.1655,1.1679,1.1682,1.1684,1.169,1.1693,1.1658,1.1658,1.1658,1.1658,0,1.1593,1.1604,1.1615,1.1623,1.1629,1.1642,1.164,1.1647,1.1644,1.1644,1.1658,1.1661,1.1669,1.1674,1.1671,1.1689,1.1686,1.168,1.1669,1.1688,1.1694,1.1697,1.166,1.1659,1.1659,1.1659,0,0,1.1629,1.1634,1.1638,1.164,1.1646,1.1654,1.1665,1.1673,1.1677,1.1684,1.1692,1.1705,1.1699,1.1703,1.1701,1.1708,1.1725,1.1701,1.1701,1.1704,1.1744,1.1747,1.175,1.1722,1.1723,1.1723,1.1742,0,1.1653,1.1673,1.167,1.1689,1.1698,1.1691,1.1701,1.1704,1.1705,1.1712,1.1712,1.172,1.1713,1.1715,1.1722,1.1722,1.1733,1.1721,1.1729,1.1729,1.1726,1.1754,1.1758,1.1776,1.1745,1.1746,1.1746,0,1.1684,1.169,1.1709,1.1711,1.1715,1.1724,1.173,1.1737,1.1741,1.174,1.1744,1.1741,1.1751,1.1741,1.1754,1.1745,1.1749,1.1749,1.175,1.1749,1.1738,1.1752,1.1782,1.1784,1.175,1.175,1.1749,0,1.1705,1.1718,1.1731,1.1733,1.1737,1.1743,1.1745,1.1748,1.1752,1.1757,1.1759,1.1766,1.1769,1.1774,1.1771,1.1764,1.1784,1.1774,1.1783,1.1783,1.1786,1.1786,1.1815,1.1791,1.1791,1.1791,1.1791,0,1.1731,1.1743,1.174,1.1748,1.176,1.1757,1.1769,1.177,1.1772,1.1779,1.1774,1.178,1.1777,1.1783,1.1782,1.1792,1.1794,1.1793,1.1792,1.1792,1.1792,1.1793,1.1791,1.1792,1.1791,1.1791,1.1791,0,1.1756,1.1755,1.1768,1.177,1.177,1.1779,1.178,1.1787,1.1787,1.1795,1.1797,1.1796,1.1803,1.1801,1.1809,1.1807,1.182,1.1818,1.1818,1.1817,1.1825,1.1824,1.1855,1.1859,1.1834,1.1834,1.1834,0,1.1772,1.1781,1.1783,1.1787,1.1789,1.1796,1.18,1.1797,1.1801,1.1805,1.1811,1.1817,1.1822,1.1833,1.1832,1.1838,1.1835,1.1846,1.1836,1.1836,1.1833,1.1832,1.1832,1.1847,1.1848,1.1848,1.1848,0,1.18,1.1799,1.1805,1.181,1.1814,1.1819,1.1822,1.1826,1.1823,1.1828,1.1834,1.1838,1.1845,1.1851,1.1855,1.1856,1.1851,1.1851,1.1853,1.1853,1.1852,1.1851,1.1822,1.185,1.185,1.185,1.185,1.185,1.182,1.1827,1.1829,1.1835,1.1837,1.184,1.1846,1.1846,1.1851,1.1856,1.1854,1.1861,1.1863,1.1869,1.1871,1.1876,1.1871,1.1875,1.1875,1.1876,1.1876,1.1853,1.1877,1.1877,1.1877,1.1876,1.1876,0,1.1846,1.1847,1.1853,1.1857,1.1862,1.1857,1.186,1.1864,1.187,1.1873,1.1877,1.1884,1.1889,1.1889,1.1893,1.1897,1.1895,1.1898,1.1897,1.1897,1.188,1.1877,1.19,1.19,1.19,1.19,1.19,1.19,1.186,1.187,1.1869,1.1879,1.188,1.1887,1.1889,1.1891,1.1893,1.19,1.1905,1.1904,1.1905,1.191,1.1914,1.1913,1.1915,1.1919,1.1918,1.1901,1.1899,1.1897,1.1894,1.1919,1.192,1.1934,1.1934,1.1934]},{"header":{"parameterUnit":"m.s-1","parameterCategory":1,"la1":30.2991,"la2":30.254,"lo1":-89.0895,"lo2":-89.0444,"dy":0.0017,"dx":0.0017,"nx":28,"ny":28,"refTime":"2025-08-25T03:00:00:Z","depth":0,"parameterNumber":3,"parameterNumberName":"V-component_of_WINDS"},"data":[0,0,0,0,0,0,0,0,0,0,0,0,0,0,0,0,0,0,0,0,0,0,0,0,0,0,0,0,0,0,0,0,0,0,0,0,0,0,0,0,0,0,0,0,0,0,0,0,0,0,0,0,0,0,0,0,0,0,2.2258,2.2257,0,2.2173,2.2172,2.2171,2.2078,2.2077,2.2076,2.2074,2.1988,2.1987,2.1986,0,0,0,0,0,0,0,0,0,0,0,0,0,2.2336,2.2335,2.2258,2.2257,2.2256,2.2173,2.2172,2.2171,2.2078,2.2077,2.2075,2.2074,2.1988,2.1987,2.1986,0,0,0,0,0,0,0,0,0,0,0,0,0,2.2282,2.2335,2.2258,2.22,2.2194,2.2173,2.2172,2.2171,2.2079,2.2077,2.2075,2.2073,2.1989,2.1987,2.1985,2.2016,0,0,2.1981,2.198,0,0,0,0,0,0,0,0,2.2285,2.2279,2.2209,2.2204,2.2197,2.2134,2.2168,2.2119,2.2079,2.2122,2.2074,2.2072,2.2038,2.2032,2.2021,2.2012,2.2008,2.1981,2.198,2.1979,2.1978,0,0,0,0,0,0,0,2.2289,2.2282,2.2224,2.2208,2.2201,2.2176,2.2167,2.2158,2.2093,2.2119,2.2112,2.2103,2.2034,2.2023,2.2018,2.2007,2.1981,2.1979,2.1978,2.1978,2.2012,2.2014,0,0,0,0,0,0,2.2302,2.2286,2.2227,2.2222,2.2237,2.2177,2.2166,2.2156,2.2092,2.2081,2.2105,2.2099,2.2026,2.202,2.2015,2.2042,2.1979,2.1977,2.1977,2.201,2.2012,2.2014,0,0,0,0,0,0,2.2304,2.2297,2.223,2.2252,2.2241,2.2178,2.2168,2.2156,2.2144,2.2082,2.207,2.2105,2.2025,2.2017,2.2015,2.2038,2.1977,2.1975,2.2008,2.2011,2.2013,2.2099,0,0,0,0,0,0,2.2306,2.2299,2.2311,2.2253,2.2241,2.2233,2.2169,2.2156,2.2141,2.2133,2.2079,2.2068,2.2022,2.2018,2.2013,2.2034,2.1974,2.2006,2.2009,2.2013,2.2094,2.2104,2.2113,0,0,0,0,0,2.231,2.234,2.2312,2.2305,2.2255,2.2235,2.2228,2.2175,2.2144,2.2154,2.2113,2.207,2.2036,2.2018,2.2013,2.2034,2.2004,2.2008,2.2012,2.2089,2.2102,2.2113,0,0,0,0,0,0,2.2404,2.2331,2.23,2.2312,2.228,2.2219,2.2231,2.2191,2.2167,2.216,2.2095,2.2084,2.2088,2.2061,2.2042,2.2056,2.2013,2.2017,2.2074,2.2086,2.2095,2.2101,2.1973,0,0,0,0,0,2.2426,2.2416,2.2354,2.2371,2.2356,2.2297,2.2286,2.2247,2.2212,2.2198,2.2157,2.2124,2.2105,2.2094,2.2074,2.209,2.2074,2.2101,2.2111,2.2119,2.2122,2.2123,2.2132,2.2028,2.2028,2.2028,0,0,2.2471,2.2431,2.2429,2.2388,2.2359,2.2348,2.2286,2.2279,2.227,2.2197,2.2191,2.216,2.2118,2.2123,2.2124,2.2101,2.2147,2.2124,2.2131,2.213,2.2128,2.2138,2.2147,2.2031,2.203,2.203,0,0,2.2549,2.2519,2.2527,2.2498,2.2453,2.2413,2.2415,2.2359,2.2335,2.2328,2.2271,2.2259,2.223,2.22,2.2181,2.2242,2.2199,2.2238,2.2288,2.229,2.2298,2.2305,2.2322,2.233,2.2241,2.2241,2.2241,0,2.2611,2.2594,2.2537,2.2531,2.2513,2.2445,2.245,2.2425,2.2377,2.2365,2.234,2.2297,2.2265,2.226,2.2274,2.2263,2.226,2.2243,2.2301,2.2308,2.2313,2.2329,2.2336,2.2246,2.2245,2.2245,2.2245,0,2.267,2.2659,2.2671,2.2624,2.2607,2.2608,2.2548,2.2538,2.25,2.2461,2.2452,2.241,2.2378,2.2374,2.2338,2.2362,2.2349,2.2314,2.2269,2.2329,2.2342,2.2348,2.2253,2.2251,2.225,2.2248,0,0,2.2806,2.2724,2.2729,2.2704,2.2648,2.2638,2.2634,2.2601,2.2591,2.2559,2.2552,2.2526,2.2491,2.247,2.2429,2.2431,2.2476,2.2395,2.2393,2.2408,2.2495,2.252,2.2528,2.2448,2.2449,2.245,2.2497,0,2.2871,2.2859,2.2805,2.2809,2.2795,2.2728,2.2723,2.2688,2.2651,2.2632,2.2591,2.2572,2.253,2.2516,2.2515,2.2471,2.2492,2.2467,2.2438,2.2437,2.2448,2.2536,2.2563,2.261,2.2503,2.2504,2.2504,0,2.2945,2.2915,2.2917,2.2857,2.2849,2.2846,2.2809,2.2794,2.275,2.2722,2.2696,2.2649,2.2638,2.2597,2.2579,2.2563,2.2547,2.2524,2.2524,2.2517,2.2473,2.2529,2.2625,2.2631,2.2513,2.2512,2.2512,0,2.3038,2.2999,2.2994,2.2975,2.2906,2.2905,2.2876,2.283,2.2812,2.2779,2.2766,2.2733,2.2714,2.2689,2.2633,2.2609,2.2619,2.2575,2.2593,2.2595,2.2597,2.2598,2.2689,2.2592,2.2592,2.2592,2.2592,0,2.3115,2.3118,2.3034,2.3031,2.303,2.2967,2.2968,2.2932,2.2891,2.2878,2.2819,2.2807,2.2735,2.2715,2.2671,2.266,2.2653,2.2628,2.2616,2.2632,2.2635,2.262,2.2614,2.2594,2.2594,2.2593,2.2593,0,2.3219,2.3163,2.3152,2.3086,2.3069,2.3072,2.3014,2.3007,2.2965,2.2948,2.2941,2.2875,2.2847,2.2789,2.2746,2.2716,2.2714,2.2695,2.2729,2.2721,2.2741,2.2738,2.2824,2.283,2.2733,2.2734,2.2735,0,2.327,2.327,2.3203,2.3189,2.3162,2.3141,2.3121,2.3058,2.304,2.2987,2.2985,2.2952,2.2922,2.288,2.2828,2.2793,2.277,2.2802,2.2765,2.2779,2.2766,2.2766,2.2763,2.2811,2.2812,2.2813,2.2814,0,2.3365,2.3336,2.331,2.3274,2.3251,2.322,2.3185,2.3177,2.3105,2.3087,2.3057,2.3033,2.2987,2.2954,2.2911,2.2878,2.2833,2.2826,2.2828,2.2843,2.2861,2.2847,2.2748,2.2824,2.2823,2.2823,2.2822,2.2822,2.3441,2.3436,2.3386,2.3358,2.3325,2.3292,2.3281,2.3236,2.321,2.3167,2.3131,2.3103,2.3055,2.2992,2.2962,2.2937,2.2916,2.292,2.292,2.2921,2.2926,2.2867,2.293,2.293,2.2929,2.2929,2.2929,0,2.3529,2.3493,2.3468,2.3419,2.3396,2.3356,2.3313,2.3296,2.3273,2.3231,2.3202,2.3165,2.3131,2.3075,2.3036,2.3027,2.3005,2.3018,2.3017,2.3009,2.295,2.295,2.3037,2.3037,2.3037,2.3037,2.3037,2.3037,2.3572,2.356,2.3525,2.3494,2.3458,2.343,2.3408,2.3377,2.3343,2.3304,2.3276,2.3239,2.319,2.3146,2.3112,2.3096,2.3083,2.3103,2.308,2.3025,2.3014,2.3005,2.3005,2.3101,2.3101,2.3141,2.3141,2.3142]}]]